Torna al catalogo

STARLINK-38239

AttivoComunicazioniSSO
NORAD 100314·PAYLOAD·🇺🇸 United States

Lanciato Aug 12, 2026 da Vandenberg Space Force Base

Loading…

Prossimi Passaggi (prossime 24 ore)

TLE

AggiornatoSource: Space-Track

Epoca: Sep 14, 2026, 13:59 UTC

1 A0314U 26184P   26257.58304743  .00021746  00000-0  67439-3 0  9997
2 A0314  97.2837 122.7877 0001205  81.7998 278.3381 15.33425604  6450

Traccia STARLINK-38239 in tempo reale con AllMySat

Download on the App Store